XTAR-EUR

Last updated on Fri Sep 12 2025 00:02:45 GMT+0000 (Coordinated Universal Time)

1 28542U 05005A 25253.47221404 -.00000075 00000+0 00000+0 0 9993 2 28542 3.6090 80.1915 0003514 102.7485 257.7058 0.98995982 75381
UTC large
Height (km)
Speed (km/s)
/
Latitude / Longitude
Inclination (degrees)
Orbital Period (minutes)
Azimuth
Elevation
Range (km)
Doppler Factor

Next 0 passes for location: London (51.5072 / 0.1276)

Sorry there are no passes over London.